Regional Weather Roundup
Issued by NWS

Home | Current Version | Previous Version | Graphics & Text | Print | Product List | Glossary On
Versions: 1 2 3 4 5 6 7 8 9 10 11 12 13 14 15 16 17 18 19 20 21 22 23 24 25 26 27 28 29 30 31 32 33 34 35 36 37 38 39 40 41 42 43 44 45 46 47 48 49 50
000
ASUS43 KOAX 061702
RWRNE

WEATHER ROUNDUP FOR NEBRASKA
NATIONAL WEATHER SERVICE OMAHA NE
1100 AM CST FRI MAR 06 2015

NOTES: SATELLITE DATA IS BEING USED TO AUGMENT CLOUD COVER ABOVE
       12000 FEET.
       "FAIR" INDICATES FEW OR NO CLOUDS BELOW 12,000 FEET WITH NO
       SIGNIFICANT WEATHER AND/OR OBSTRUCTIONS TO VISIBILITY.

  * THESE STATIONS DO NOT REPORT WEATHER SUCH AS RAIN...SNOW OR FOG.

NEZ001>004-019>022-054>056-061800-
NEBRASKA PANHANDLE

CITY           SKY/WX    TMP DP  RH WIND       PRES   REMARKS
SCOTTSBLUFF    SUNNY     49  22  34 W12       30.26S
ALLIANCE       SUNNY     51  17  26 NW18      30.21S
CHADRON        CLOUDY    44  23  43 W16       30.21F
KIMBALL        SUNNY     47  16  28 NW18      30.25R
SIDNEY         SUNNY     50  18  28 NW14G23   30.26S
$$

NEZ057>060-069>072-079>082-061800-
SOUTHWEST NEBRASKA

CITY           SKY/WX    TMP DP  RH WIND       PRES   REMARKS
NORTH PLATTE   SUNNY     49  22  34 W12       30.23F
IMPERIAL         N/A     52  19  27 NW14      30.26S
LEXINGTON      SUNNY     49  22  34 W7        30.24F
MCCOOK         SUNNY     50  22  33 W9        30.27F
$$

NEZ005>010-023>029-035>040-094-061800-
NORTH CENTRAL NEBRASKA

CITY           SKY/WX    TMP DP  RH WIND       PRES   REMARKS
VALENTINE      SUNNY     51  20  29 NW12      30.17S
AINSWORTH      SUNNY     50  16  26 NW14      30.17S
BROKEN BOW     SUNNY     52  22  30 W13       30.20S
ORD            SUNNY     51  16  24 W7        30.19S
$$

NEZ041-046>049-061>064-073>077-083>087-061800-
SOUTH CENTRAL NEBRASKA

CITY           SKY/WX    TMP DP  RH WIND       PRES   REMARKS
GRAND ISLAND   SUNNY     50  20  30 W15       30.23S
HASTINGS       SUNNY     50  18  28 W9        30.23F
HEBRON         SUNNY     52  15  23 W8        30.26F
KEARNEY *      SUNNY     46  21  36 W7        30.24F
YORK           SUNNY     52  21  30 SW12      30.22F
$$

NEZ011>018-030>034-042>045-061800-
NORTHEAST NEBRASKA

CITY           SKY/WX    TMP DP  RH WIND       PRES   REMARKS
NORFOLK        SUNNY     56  18  22 W9        30.15F
BLAIR          SUNNY     44  19  37 SW9       30.20S
COLUMBUS *     SUNNY     48  21  34 SW9       30.22S
FREMONT        SUNNY     50  19  29 SW3       30.20F
TEKAMAH        SUNNY     49  20  31 SW9       30.19F
$$

NEZ050>053-065>068-078-088>093-061800-
SOUTHEAST NEBRASKA

CITY           SKY/WX    TMP DP  RH WIND       PRES   REMARKS
LINCOLN        SUNNY     53  20  27 SW10      30.24F
OMAHA EPPLEY   SUNNY     42  17  36 SW7       30.22F
FALLS CITY     SUNNY     50  22  33 W13       30.27S
NEBRASKA CITY  SUNNY     49  13  23 W14       30.24F
$$

NEZ044-045-051>053-067-061800-
OMAHA AREA

CITY           SKY/WX    TMP DP  RH WIND       PRES   REMARKS
OMAHA EPPLEY   SUNNY     42  17  36 SW7       30.22F
BLAIR          SUNNY     44  19  37 SW9       30.20S
FREMONT        SUNNY     50  19  29 SW3       30.20F
OFFUTT AFB     SUNNY     45  18  34 SW8       30.22S
WAHOO          FAIR      53  16  23 W13       30.20F
$$



USA.gov is the U.S. government's official web portal to all federal, state and local government web resources and services.